User: anonymous   Login
Location: Unspecified
(49.8670°N, 0.0000°E)
Time: 05:49:42
(UTC+00:00)
Language:

A-11 Canister half - Orbit

View from above orbital plane
View from above orbital plane
View from above satellite
View from above satellite

Ground track
Ground track

The orbit data is extracted from the following two-line orbital elements,

1    53U 60009E   19169.41687874 -.00000053  00000-0  31977-3 0  9993
2    53  47.2770 304.6813 0099142  83.3631 277.8431 12.17228797624102
Epoch (UTC): 18 June 2019 10:00:18
Eccentricity: 0.0099142
inclination: 47.2770°
perigee height: 1525 km
apogee height: 1684 km
right ascension of ascending node: 304.6813°
argument of perigee: 83.3631°
revolutions per day: 12.17228797
mean anomaly at epoch: 277.8431°
orbit number at epoch: 62410

The dashed part of the orbit path shows where the satellite is in the earth's shadow,  

DLR